Location: Newark
(32.3788°N, 35.6119°E)
Time: 21:16:20
(UTC+00:00)

Tiangong 2 - Visible Passes

Search period start: 18 July 2019 00:00
Search period end: 28 July 2019 00:00
Orbit: 378 x 386 km, 42.8° (Epoch: 18 July)

Date Brightness Start Highest point End Pass type
(mag) Time Alt. Az. Time Alt. Az. Time Alt. Az.
18 Jul 3.2 18:44:22 10° NW 18:46:50 21° NNE 18:47:00 21° NNE visible
19 Jul 3.7 17:44:16 10° NNW 17:46:15 15° NNE 17:48:14 10° NE visible
19 Jul 3.9 19:20:18 10° NW 19:21:20 19° NW 19:21:20 19° NW visible
20 Jul 2.4 18:20:07 10° NW 18:22:57 30° NNE 18:23:32 28° NE visible
21 Jul 3.2 17:20:00 10° NNW 17:22:26 20° NNE 17:24:51 10° ENE visible
21 Jul 3.0 18:56:14 10° WNW 18:57:55 29° WNW 18:57:55 29° WNW visible
22 Jul 1.5 17:55:54 10° NW 17:58:59 53° NNE 18:00:11 31° E visible
23 Jul 2.5 18:32:20 10° WNW 18:34:39 31° WSW 18:34:39 31° WSW visible
24 Jul 1.0 17:31:48 10° WNW 17:34:55 77° SSW 17:37:01 19° SE visible
25 Jul 3.2 18:08:52 10° W 18:10:59 17° SW 18:11:37 16° SSW visible
26 Jul 2.2 17:07:50 10° WNW 17:10:45 35° SW 17:13:38 10° SSE visible
